Address 0x055ca0b950e129ff387de1dbf53cabcb434a64be 6

 
 
Txn Hash Method
Block
From
To
Value [Txn Fee]
0x432e9f2a6b0eab017ee67228aa6a7a2b9f399f2337a4f77d08d53b1c19e46854Update Rates320037912022-08-17 18:17:0354 mins ago0x055ca0b950e129ff387de1dbf53cabcb434a64beOUT 0x930524d88431979a1f32f623cd7c67dc3e6f3a730 MATIC0.003250845
0xddbcd1846e3a568a725d0593c2651ff123a4c347370681f7d686e3fc355e243dUpdate Rates320029282022-08-17 17:43:051 hr 28 mins ago0x055ca0b950e129ff387de1dbf53cabcb434a64beOUT 0x930524d88431979a1f32f623cd7c67dc3e6f3a730 MATIC0.003250845
0xa1a2eb7bdaa85377bee3a6fcd73258afb667d4f56947d41c4fa0300200c5caf0Update Rates320028122022-08-17 17:39:051 hr 32 mins ago0x055ca0b950e129ff387de1dbf53cabcb434a64beOUT 0x930524d88431979a1f32f623cd7c67dc3e6f3a730 MATIC0.003250845
0x1e7c88292c28484d4ac1c5613beb0b6bfdbec54626a9cd6d57bca224d69b667aUpdate Rates320027822022-08-17 17:38:051 hr 33 mins ago0x055ca0b950e129ff387de1dbf53cabcb434a64beOUT 0x930524d88431979a1f32f623cd7c67dc3e6f3a730 MATIC0.003250845
0x06af3bc1a8084980b059a9beea0599eef9b17586d17354f7d04c72268aa08f98Update Rates319989442022-08-17 15:10:504 hrs 1 min ago0x055ca0b950e129ff387de1dbf53cabcb434a64beOUT 0x930524d88431979a1f32f623cd7c67dc3e6f3a730 MATIC0.003250845
0x8e1caf45b4349386430ff8fd7b3d0ec47acf0e6bea1ca2a30bf32a2be542f770Update Rates319613912022-08-16 15:16:041 day 3 hrs ago0x055ca0b950e129ff387de1dbf53cabcb434a64beOUT 0x930524d88431979a1f32f623cd7c67dc3e6f3a730 MATIC0.003250845
0xc54ee31c7ee0dbd875cf5c43cd1a43d465a8181576b35c51f308542e04132d19Update Rates319223192022-08-15 14:26:032 days 4 hrs ago0x055ca0b950e129ff387de1dbf53cabcb434a64beOUT 0x930524d88431979a1f32f623cd7c67dc3e6f3a730 MATIC0.003250845
0x9e6bdc93e6d96e085bd9ee00bddd145c086bfa4ffea09dd9b89c6b7a2db5fc17Update Rates318828512022-08-14 13:36:053 days 5 hrs ago0x055ca0b950e129ff387de1dbf53cabcb434a64beOUT 0x930524d88431979a1f32f623cd7c67dc3e6f3a730 MATIC0.003250845
0xd78ac120533ccc0a2a3f9dc732e77bb789201c3a30945627d14615506ac402b8Update Rates318729772022-08-14 7:50:103 days 11 hrs ago0x055ca0b950e129ff387de1dbf53cabcb434a64beOUT 0x930524d88431979a1f32f623cd7c67dc3e6f3a730 MATIC0.003250845
0x4dd657a00db0116d41a8d05d43b0bc60b00c81ec1f0106a18b0c435e6114abc3Update Rates318487052022-08-13 16:02:124 days 3 hrs ago0x055ca0b950e129ff387de1dbf53cabcb434a64beOUT 0x930524d88431979a1f32f623cd7c67dc3e6f3a730 MATIC0.003250845
0x44440b0454ad75052e0b9e601f43d1ec9731b2f2f7153f3043229848cae73433Update Rates318102942022-08-12 15:18:535 days 3 hrs ago0x055ca0b950e129ff387de1dbf53cabcb434a64beOUT 0x930524d88431979a1f32f623cd7c67dc3e6f3a730 MATIC0.003250845
0x268f79a4d3eb8b81e15306940e46ae2068cbdf9e85c03ad097932b561b482e4aUpdate Rates317713322022-08-11 14:22:046 days 4 hrs ago0x055ca0b950e129ff387de1dbf53cabcb434a64beOUT 0x930524d88431979a1f32f623cd7c67dc3e6f3a730 MATIC0.003250845
0x4da88daab5d4df4e031fd8e5279d514b4ea806c8909dc011f65bc1edeaffde56Update Rates317428492022-08-10 20:32:066 days 22 hrs ago0x055ca0b950e129ff387de1dbf53cabcb434a64beOUT 0x930524d88431979a1f32f623cd7c67dc3e6f3a730 MATIC0.003250845
0x2e4eeefbbe887661a5d5a7af7a9cb4acfedd317fb4c3ee3fd6e076d981ad31beUpdate Rates317069672022-08-09 19:42:037 days 23 hrs ago0x055ca0b950e129ff387de1dbf53cabcb434a64beOUT 0x930524d88431979a1f32f623cd7c67dc3e6f3a730 MATIC0.003250845
0x2b4096c5e016e78ccd981001e881b7103b068be10188b1351de1b940c237ce9cUpdate Rates316679452022-08-08 18:52:059 days 19 mins ago0x055ca0b950e129ff387de1dbf53cabcb434a64beOUT 0x930524d88431979a1f32f623cd7c67dc3e6f3a730 MATIC0.003250845
0xa6f01050c2ac76c40c1f6deaa0af5fc4309f53d259919a780eae6baf34c992d9Update Rates316679152022-08-08 18:51:059 days 20 mins ago0x055ca0b950e129ff387de1dbf53cabcb434a64beOUT 0x930524d88431979a1f32f623cd7c67dc3e6f3a730 MATIC0.003250845
0x09566757c1634be93a1b5bd94d922451edf860d6b65ff5c849bad299464d800cUpdate Rates316584722022-08-08 12:35:059 days 6 hrs ago0x055ca0b950e129ff387de1dbf53cabcb434a64beOUT 0x930524d88431979a1f32f623cd7c67dc3e6f3a730 MATIC0.003250845
0xd3e8bf845cadd6f6cbb6d221890ab30245258a806f8470419113a88f65354002Update Rates316583562022-08-08 12:31:059 days 6 hrs ago0x055ca0b950e129ff387de1dbf53cabcb434a64beOUT 0x930524d88431979a1f32f623cd7c67dc3e6f3a730 MATIC0.003250845
0xa6da853c3d1cbdc5642c1a59714893239096c0ce909c52dc0a620ad0fa36f93aUpdate Rates316582972022-08-08 12:29:039 days 6 hrs ago0x055ca0b950e129ff387de1dbf53cabcb434a64beOUT 0x930524d88431979a1f32f623cd7c67dc3e6f3a730 MATIC0.003250845
0xb83eaa80b41babe6cdb255690f1aebba51a21afa535e36e631422c8a5017b312Update Rates316582682022-08-08 12:28:059 days 6 hrs ago0x055ca0b950e129ff387de1dbf53cabcb434a64beOUT 0x930524d88431979a1f32f623cd7c67dc3e6f3a730 MATIC0.003250845
0x197960da5641dc63b25f2e866c3d2ed1aac5eb7a4faffb62dab39a97246c2f06Update Rates316582392022-08-08 12:27:039 days 6 hrs ago0x055ca0b950e129ff387de1dbf53cabcb434a64beOUT 0x930524d88431979a1f32f623cd7c67dc3e6f3a730 MATIC0.003250845
0x32c482d9485979eca91915a9687e07c43f2b0c4d75c5477c84f3cdce6b83f8adUpdate Rates316374762022-08-07 22:37:069 days 20 hrs ago0x055ca0b950e129ff387de1dbf53cabcb434a64beOUT 0x930524d88431979a1f32f623cd7c67dc3e6f3a730 MATIC0.003250845
0x2b059d3aee1314be8a78b16bb80b0bf2b84bec04946466c778dccd34aeacfb21Update Rates316013022022-08-06 21:47:0410 days 21 hrs ago0x055ca0b950e129ff387de1dbf53cabcb434a64beOUT 0x930524d88431979a1f32f623cd7c67dc3e6f3a730 MATIC0.003250845
0x40617531188b9505034c21ee577f27d36566a36ad79d1a8ac87237ad57b0fb04Update Rates315618352022-08-05 20:57:0511 days 22 hrs ago0x055ca0b950e129ff387de1dbf53cabcb434a64beOUT 0x930524d88431979a1f32f623cd7c67dc3e6f3a730 MATIC0.003250845
0x8ad850c4d0530362cbf4d15160fa14d6b427434f29a1941fc4d5279e40998559Update Rates315224632022-08-04 20:07:0412 days 23 hrs ago0x055ca0b950e129ff387de1dbf53cabcb434a64beOUT 0x930524d88431979a1f32f623cd7c67dc3e6f3a730 MATIC0.003250845
[ Download CSV Export 
Parent Txn Hash Block From To Value
Loading

Contract Name:
0 MATIC

Compiler Version
0

Optimization Enabled:
0 MATIC

Other Settings:
-NA-
Block Transaction Gas Used Reward
Age Block Fee Address BC Fee Address Voting Power Jailed Incoming
Block Uncle Number Difficulty Gas Used Reward
Loading
Loading
Make sure to use the "Vote Down" button for any spammy posts, and the "Vote Up" for interesting conversations.